21:37
Airports
History
Links
Donate
Help keep this website running!
PayPal
Bitcoin
This page is community maintained. The information is intended for PC simulator navigation or reference.
Always use approved charts for navigation.
U65
CareyUpdated 28-Jul-2013
Carey (U65)
Carey, Idaho, United States (83320)
4
Lat/Lng:43° 18' 31.7" N / 113° 56' 9.7" W
43.308806 / -113.936028
Elevation:4783'ft / 1458mMSL
Declination:E016°
ID / ICAO:U65
FAA:U65
Runways:1
Longest:07-25
Grass 805m / 2,640ft
(Edited 2013-07-28) [ Sign in to Edit ]
Nearby Weather20:50 GMT 2018-01-17
Nearby weather at KSUN, Friedman Memorial located 22.5 nautical miles from U65
Altimeter: 30.36
Visibility: 10.0 statute miles
Wind: 5 knots (from 310°)
Temp: 3°c / 37°f
Humidity: 51.5%

METAR: KSUN 172050Z 31005KT 10SM SCT100 OVC130 03/M06 A3036

(Powered by phpweather)
Nearby VORs <50NM
Nearby NDBs
Runway 07 / 25
Dimensions:804.7 x 51.8m 2640' x 170'ft
Surface:Grass
Runway 07 [A]Runway 25 [B]
Heading:069°MH  085°TH249°MH   265°TH
Lat:
Lng:
43° 18' 28.75"N
113° 56' 21.04"W
43° 18' 30.57"N
113° 55' 45.17"W
User Notes and Comments
43° 18' 31.7" N / 113° 56' 9.7" W
Distance To
Airport ID:
Nearby Airports
4 Picabo 6.4 NM
1U8 W 269°
4 Flat Top Airstrip 12.8 NM
81U N
4 Hollow Top 17.4 NM
0U7 E 86°
(R) Sluder Airstrip 18.1 NM
ID16 WNW 291°
4 Laidlaw Corrals 21.4 NM
U99 SSE 151°
(C) Friedman Memorial 22.5 NM
KSUN ( WX ) NW 306°
4 Magic Reservoir 23.2 NM
U93 W 265°
VFR Chart
Flight Planning at SkyVector.com